Home   Weather   Medjugorje   Past weeks
Flag for Bosnia-Herzegovina

Past Weather in Medjugorje, Bosnia-Herzegovina — Yesterday and Last 2 Weeks

Now
45 °F

Passing clouds.


Feels Like: 45 °F
Forecast: 62 / 48 °F
Wind: 2 mph from North

Location: Mostar

Current Time: Nov 14, 2019 at 11:32:29 pm

Latest Report: Nov 14, 2019 at 11:00 pm


Visibility: 5 mi

Pressure: 29.86 "Hg

Humidity: 93%

Dew Point: 43 °F

Location of MedjugorjeLocation

Past Weather in Medjugorje — Graph

°F

Medjugorje Temperature Yesterday

Maximum temperature yesterday: 64 °F (at 12:00 am)
Minimum temperature yesterday: 55 °F (at 8:00 pm)
Average temperature yesterday: 60 °F

High & Low Weather Summary for the Past Weeks

 TemperatureHumidityPressure
High70 °F (Nov 3, 9:00 pm)100% (Nov 2, 11:00 am)30.07 "Hg (Nov 2, 11:00 am)
Low43 °F (Nov 1, 4:00 am)38% (Nov 1, 2:00 pm)29.39 "Hg (Nov 13, 9:00 am)
Average58 °F81%29.76 "Hg
* Reported Oct 30 10:00 pm — Nov 14 10:00 pm, Medjugorje. Weather by CustomWeather, © 2019

Note: Actual official high and low records may vary slightly from our data, if they occured in-between our weather recording intervals... More about our weather records

Advertising

Medjugorje Weather History for the Previous 24 Hours

Scroll right to see more
 ConditionsComfort  
Time TempWeatherWind HumidityBarometerVisibility
10:00 pm
Thu, Nov 14
46 °FPassing clouds.3 mph87%29.83 "HgN/A
9:30 pm48 °FPassing clouds.1 mph87%29.83 "HgN/A
9:00 pm48 °FPassing clouds.3 mph100%29.83 "HgN/A
8:00 pm48 °FPassing clouds.1 mph94%29.83 "HgN/A
7:00 pm52 °FPassing clouds.2 mph94%29.80 "HgN/A
6:00 pm54 °FPassing clouds.2 mph88%29.77 "HgN/A
5:00 pm57 °FPassing clouds.2 mph82%29.77 "HgN/A
4:00 pm63 °FPassing clouds.1 mph73%29.77 "HgN/A
3:00 pm63 °FPassing clouds.3 mph68%29.77 "HgN/A
2:00 pm64 °FPassing clouds.2 mph68%29.77 "HgN/A
1:00 pm61 °FPassing clouds.2 mph83%29.77 "HgN/A
12:00 pm59 °FPassing clouds.2 mph88%29.77 "HgN/A
11:30 am59 °FPassing clouds.1 mph94%29.77 "HgN/A
11:00 am55 °FPassing clouds.1 mph100%29.80 "Hg6 mi
10:30 am55 °FFog.2 mph94%29.80 "Hg3 mi
10:00 am54 °FPartly sunny.1 mph100%29.80 "Hg1 mi
9:30 am52 °FFog.3 mph100%29.80 "Hg0 mi
9:00 am52 °FFog.2 mph94%29.80 "Hg0 mi
8:30 am50 °FFog.1 mph100%29.80 "Hg0 mi
8:00 am50 °FFog.2 mph100%29.77 "Hg0 mi
7:00 am48 °FFog.1 mph100%29.77 "Hg0 mi
6:00 am50 °FFog.1 mph94%29.74 "Hg0 mi
5:00 am50 °FFog.3 mph100%29.74 "Hg0 mi
4:00 am50 °FFog.3 mph100%29.74 "Hg0 mi
3:00 am54 °FFog.2 mph94%29.74 "Hg1 mi
2:00 am54 °FFog.1 mph94%29.71 "Hg1 mi
12:00 am54 °FPartly cloudy.1 mph94%29.71 "Hg4 mi
11:00 pm
Wed, Nov 13
55 °FRain. Partly cloudy.3 mph94%29.71 "HgN/A
Weather by CustomWeather, © 2019

See weather overview